Wind_Speed
12 10 12 13 14 17 19 20 18 16 17 16 15 13 15 14 11 15 17 14 19 14 15 17 15 15 12 14 14 13 15 14 13 12 8 8 9 10 11 12 12 10 9 9 9 10 11 11 12 15 18 21 19 17 20 21 21 20 17 17 17 15 14 14 11 8 5 4 4 4 4 3 4 6 6 6 6 7 7 5 5 6 6 6 7 7
13 12 15 17 17 19 21 20 18 19 21 17 14 12 13 14 12 15 17 15 18 13 12 16 16 16 14 15 14 14 14 13 13 14 12 11 9 9 12 14 13 13 12 12 13 13 13 12 13 12 15 19 18 17 19 22 25 23 20 19 17 16 15 15 12 7 4 4 3 2 3 5 6 7 8 8 8 7 6 5 8 9 9 9 10 10
13 13 17 19 18 19 20 20 19 20 21 17 11 12 11 12 13 14 17 19 16 10 9 16 16 11 13 15 13 13 11 10 12 13 15 15 12 10 12 14 13 14 15 15 14 14 14 14 13 10 12 15 15 15 16 21 25 23 20 19 17 17 16 15 12 7 6 7 4 2 2 4 5 7 8 9 10 8 6 8 10 10 10 10 10 11
12 13 18 19 18 19 19 20 21 18 17 15 11 11 10 12 14 11 14 18 14 9 9 14 12 4 12 13 10 10 9 8 10 12 14 14 13 12 13 12 12 13 14 16 16 14 14 16 14 12 13 13 13 13 15 21 23 20 21 21 19 18 16 14 12 8 6 6 5 5 4 4 6 8 10 10 9 7 6 9 10 10 10 10 11 11
13 14 18 20 20 21 20 20 21 15 12 15 15 12 10 13 16 12 13 14 12 11 10 11 9 7 11 13 9 8 9 8 9 13 14 12 11 10 11 11 11 11 11 13 16 13 14 16 15 14 14 14 13 12 14 18 20 20 22 22 19 17 15 14 13 11 8 6 5 6 6 6 6 7 9 8 5 5 7 9 10 11 11 11 11 11
14 16 18 21 21 22 21 17 19 16 10 13 17 17 14 13 16 18 17 12 10 9 12 12 8 7 12 15 13 9 9 8 7 11 15 13 13 12 11 10 10 10 10 11 14 13 14 16 16 16 15 14 14 14 14 16 18 20 23 23 19 18 17 15 15 14 13 11 7 5 7 7 5 5 5 5 5 7 9 9 9 10 11 11 11 11
12 18 20 21 21 22 21 16 19 20 12 10 14 17 18 14 15 20 18 11 8 8 11 14 11 5 9 12 14 13 11 10 7 8 13 14 12 12 10 10 10 10 9 10 13 14 14 15 17 16 15 15 15 16 17 16 18 20 21 21 19 19 19 19 18 16 15 14 10 7 6 7 6 5 5 7 8 10 10 10 9 9 10 10 10 11
13 20 21 22 21 19 17 14 18 21 13 9 12 16 20 18 16 20 17 12 9 7 9 14 14 6 6 10 15 17 14 13 11 9 12 13 13 12 9 11 12 11 11 12 11 13 14 15 17 17 16 17 17 18 18 17 18 17 18 20 20 20 20 19 19 16 14 13 12 11 8 7 7 7 7 8 9 9 10 11 10 9 9 9 9 11
15 19 21 22 20 15 14 16 18 20 15 10 13 17 19 17 16 14 12 9 9 8 7 13 15 9 6 11 15 17 16 14 13 12 13 15 15 11 9 11 12 12 13 14 12 14 15 16 18 18 17 18 18 18 18 18 17 17 20 22 21 21 21 19 18 16 14 13 12 13 12 10 9 8 8 9 9 10 11 11 10 10 9 9 10 10
13 16 19 20 17 13 15 18 17 18 15 12 15 18 17 15 13 10 9 10 10 8 8 13 15 11 6 11 14 13 14 14 12 11 12 15 15 12 11 12 13 12 11 13 13 13 15 18 19 19 19 19 20 20 19 18 18 19 22 25 24 24 23 20 19 18 16 13 11 12 11 9 9 9 9 10 10 11 10 11 11 9 9 10 10 10
14 14 15 15 14 13 16 17 17 17 17 15 15 15 14 13 11 8 9 9 8 7 11 16 17 14 8 8 14 12 14 16 14 12 13 16 18 15 12 12 13 13 10 11 12 12 15 19 21 21 21 21 20 20 20 20 20 21 23 27 27 25 23 21 19 18 17 15 13 13 12 9 8 9 9 10 11 10 10 11 9 8 7 8 9 9
17 15 12 12 16 16 15 16 16 17 18 16 13 9 10 9 8 7 7 6 6 8 13 18 17 16 10 6 11 12 15 19 17 16 17 18 20 18 13 12 14 13 11 12 12 12 13 17 20 21 20 21 20 21 22 22 22 23 24 26 26 24 24 22 19 18 17 16 15 14 12 10 10 10 10 10 11 10 10 9 7 7 8 9 9 8
14 15 13 13 16 17 15 13 13 14 15 15 12 9 9 8 7 8 7 6 7 7 10 15 17 14 9 8 13 13 15 19 17 18 20 20 20 18 15 14 13 14 13 13 12 11 11 13 17 20 20 21 20 21 23 22 22 22 21 23 25 26 24 22 19 18 17 15 14 13 11 10 10 11 10 10 11 10 8 7 7 7 8 9 10 8
10 15 17 14 11 14 14 12 11 11 13 15 12 10 10 8 7 9 7 7 7 6 9 15 16 12 7 10 19 18 16 18 18 17 18 20 19 17 17 14 12 14 14 13 13 13 12 13 15 18 20 20 20 21 21 21 21 22 21 23 25 25 23 21 20 18 17 15 13 12 10 9 10 11 10 10 10 10 9 8 8 8 8 9 9 8
12 12 14 13 9 12 15 13 12 11 12 14 12 10 10 8 7 7 7 7 7 7 10 14 11 8 5 6 15 18 16 17 18 16 16 16 17 16 17 16 13 13 12 12 14 14 14 17 18 18 19 20 22 22 21 21 22 21 22 23 24 23 22 21 20 18 17 15 13 12 10 9 9 10 9 9 9 9 9 9 9 8 8 8 8 7
14 10 13 15 11 14 16 15 14 13 11 11 11 11 10 9 7 5 6 5 3 5 8 8 6 3 1 1 10 15 15 16 17 17 16 16 18 16 15 15 13 12 12 12 14 15 16 19 20 18 19 21 22 22 21 22 22 21 21 21 22 23 22 20 19 18 16 14 12 11 10 10 10 10 10 10 10 10 9 9 9 9 8 8 8 7
11 9 16 19 15 18 19 16 15 13 9 8 11 12 11 12 9 5 6 3 1 4 6 6 6 3 2 2 8 13 14 16 17 18 17 18 20 17 13 13 13 13 14 13 14 15 16 18 20 20 20 21 21 21 21 22 21 21 21 21 22 22 21 19 18 17 16 15 13 12 11 11 11 12 12 12 11 10 10 9 9 9 9 8 7 8
9 7 15 20 18 18 19 18 17 16 12 8 10 12 10 11 10 6 6 4 3 6 5 7 11 8 6 4 6 11 14 14 16 19 19 19 19 15 13 15 15 16 16 15 14 14 15 18 21 20 20 21 21 21 22 22 21 20 20 21 22 21 19 18 18 17 17 16 16 15 13 13 12 12 12 12 12 11 11 10 10 10 10 9 8 8
9 7 12 18 17 15 16 16 14 15 16 12 9 10 9 9 8 7 6 5 7 7 5 9 13 10 8 7 8 12 14 13 16 18 17 19 19 15 15 17 18 17 15 13 12 12 13 16 19 19 20 21 22 22 23 23 21 21 21 21 20 20 19 18 18 18 17 17 17 16 15 14 14 13 13 13 13 12 12 11 11 11 10 10 10 9
8 5 8 15 16 14 13 12 10 12 15 15 10 11 9 7 7 7 5 5 7 6 6 9 11 8 7 9 13 14 13 13 16 15 14 18 20 17 17 17 15 14 13 11 11 11 12 15 19 21 22 22 23 23 23 22 22 21 21 20 20 19 18 18 18 18 17 17 17 17 16 15 15 14 14 13 13 12 12 12 11 11 11 11 11 10
7 5 7 11 14 13 10 10 11 11 12 12 11 12 11 7 7 7 6 7 7 6 6 7 7 7 6 8 14 16 13 13 14 12 13 18 20 19 19 17 14 13 13 12 12 12 12 15 20 23 23 24 24 22 22 22 22 21 20 19 19 18 18 18 17 17 17 17 17 17 17 16 15 15 14 13 13 13 12 12 12 12 12 12 11 11
5 4 8 8 10 11 10 12 14 13 12 11 10 10 11 9 8 8 8 9 8 6 6 6 6 6 4 5 10 12 11 12 13 15 16 18 20 19 19 18 15 14 14 14 14 13 13 16 20 23 24 24 24 23 23 23 21 20 19 19 18 17 18 18 17 17 17 17 17 17 17 16 15 15 15 14 13 13 13 13 13 12 12 12 12 12
5 4 8 8 9 10 12 14 16 15 14 12 10 9 10 11 10 7 7 8 8 8 7 7 6 3 1 3 7 9 9 10 12 16 16 17 20 20 20 18 16 15 15 16 16 13 13 18 22 24 24 24 24 24 23 22 20 19 19 18 18 18 18 17 17 18 18 18 18 17 16 16 16 15 15 14 14 14 14 13 13 13 12 12 12 13
5 5 8 8 8 10 12 14 16 17 14 11 11 11 10 11 11 8 7 6 6 8 7 6 5 2 1 2 5 8 10 10 10 14 17 17 16 18 22 19 15 16 16 17 17 13 14 20 22 22 22 22 23 23 23 21 20 20 19 18 18 19 18 17 18 18 18 18 18 17 16 16 16 15 15 15 14 14 14 14 14 13 12 12 13 13
4 6 9 7 7 9 10 11 14 16 14 10 10 13 13 14 15 12 8 6 5 8 10 8 4 3 2 2 3 8 11 11 9 14 19 18 15 16 20 16 13 15 15 16 19 16 15 17 19 20 22 22 22 23 22 21 21 21 20 19 20 20 18 18 18 19 19 19 18 17 16 16 15 15 15 15 15 15 15 15 14 14 13 13 13 13
6 7 8 8 8 10 9 10 11 11 10 8 11 17 17 16 16 13 7 6 5 7 10 9 4 6 7 5 4 8 12 10 8 16 19 18 17 16 17 14 12 13 14 16 19 18 15 14 16 20 23 23 23 23 22 22 21 21 20 21 21 19 19 19 19 20 19 19 19 18 17 17 16 15 16 16 16 15 15 15 15 15 14 14 14 14
6 5 9 11 9 9 9 9 11 10 10 10 14 19 18 16 17 11 6 7 6 6 8 8 4 10 10 8 7 8 7 5 10 17 18 16 17 16 15 14 12 12 14 15 16 16 15 14 16 20 22 23 24 24 23 23 22 21 21 23 22 19 20 20 20 20 19 19 19 18 18 17 16 16 16 16 16 15 15 15 15 14 14 13 14 14
3 4 12 15 12 11 11 10 13 15 15 15 16 17 16 16 17 12 8 9 8 6 7 5 8 11 9 10 10 5 7 11 13 15 16 15 14 13 14 14 12 13 14 14 14 15 16 14 14 18 21 23 24 24 23 22 21 20 20 23 22 20 20 21 20 20 19 19 19 18 18 17 16 16 16 16 16 16 15 15 15 14 14 14 14 14
4 4 10 13 13 12 12 13 16 17 16 15 15 14 13 15 18 15 11 11 10 7 6 4 11 10 8 9 7 8 13 15 14 13 13 12 11 11 13 14 14 14 14 14 14 15 16 14 13 16 20 22 24 24 23 22 22 20 19 21 21 20 20 20 20 20 19 19 18 18 18 17 17 17 16 16 17 16 16 16 15 15 14 14 14 14
4 5 8 11 11 10 11 13 15 15 15 16 16 15 14 15 18 17 13 11 12 10 9 6 10 9 8 7 10 12 13 14 14 13 12 12 11 11 12 13 13 14 15 14 14 14 16 16 15 17 20 22 24 24 22 22 22 20 20 21 20 19 19 19 19 19 19 18 18 18 18 18 17 17 17 17 17 16 16 15 15 15 14 14 14 14
3 4 10 10 8 9 12 12 12 12 13 15 16 16 15 15 16 15 12 9 10 11 10 7 7 7 7 8 13 14 14 14 14 15 15 15 14 13 12 11 12 13 14 15 14 13 14 16 15 17 19 21 23 23 21 21 20 20 21 21 20 19 19 19 19 19 18 18 18 18 18 18 18 17 17 17 16 16 16 15 15 15 14 14 13 13
3 4 9 8 6 6 10 11 11 12 13 15 16 16 16 14 12 12 11 10 10 9 9 9 7 6 6 12 14 13 15 16 16 16 16 16 17 18 16 15 14 14 13 13 13 13 14 14 14 15 17 20 22 21 20 21 21 20 21 21 20 20 19 19 19 18 18 18 18 18 18 18 18 17 17 17 16 16 15 15 15 14 14 13 13 13
5 5 6 6 5 6 10 11 5 5 10 12 10 12 15 15 12 11 12 12 11 8 6 8 7 5 10 14 14 13 15 15 15 15 14 15 18 18 19 19 17 15 13 12 13 14 14 14 15 17 19 20 20 20 20 21 21 20 21 21 21 21 20 20 20 19 19 19 18 18 18 18 18 17 17 17 16 16 16 15 15 14 14 13 13 13
7 6 5 5 5 6 11 9 1 2 8 4 2 8 11 12 15 15 13 11 12 10 7 6 5 5 12 14 13 14 14 14 14 13 13 14 15 15 17 18 16 13 12 13 14 13 13 15 19 22 22 21 21 23 23 21 21 22 22 20 21 22 21 20 20 20 19 19 18 18 18 18 18 17 17 17 16 16 16 15 15 14 13 13 13 12
6 5 4 5 4 4 6 6 5 6 5 2 5 8 7 6 10 14 15 15 15 14 11 9 8 5 11 12 10 10 11 11 13 13 13 14 14 14 14 15 15 14 13 14 15 14 16 20 23 23 23 22 24 25 24 21 21 22 21 19 20 22 21 20 21 20 20 19 19 18 18 18 18 18 17 17 16 16 15 15 14 13 12 12 12 12
6 5 4 4 4 4 6 7 7 4 1 2 4 6 5 6 7 5 11 16 16 14 13 13 13 9 12 13 10 9 10 10 10 11 12 14 13 13 12 13 15 15 14 15 17 18 21 25 26 25 25 25 26 25 24 23 22 21 20 20 20 21 21 21 21 20 20 20 19 19 18 18 18 18 17 17 17 16 15 14 13 13 12 12 12 11
8 5 4 4 4 5 6 7 5 2 2 3 3 4 5 7 6 3 3 8 12 14 12 12 14 11 14 16 11 11 13 10 8 8 11 14 12 11 12 15 15 16 17 19 23 27 29 30 28 27 27 27 26 27 27 27 24 21 20 20 20 20 21 21 21 21 20 19 19 19 19 18 19 18 17 17 17 16 15 14 13 12 12 12 12 11
10 6 6 6 4 4 5 6 6 6 5 6 7 7 5 7 8 4 3 4 7 9 10 12 14 13 12 15 15 14 12 9 7 7 11 14 12 11 15 17 17 19 21 22 24 26 27 27 27 25 26 27 27 29 30 29 27 24 21 20 21 21 21 21 20 20 20 19 19 19 18 18 19 19 18 18 17 16 15 13 12 11 11 11 11 12
12 8 5 4 4 4 5 6 6 6 3 2 6 10 8 5 3 1 2 6 5 7 9 11 13 14 11 12 15 14 10 7 6 7 11 14 13 14 17 16 17 21 24 25 27 26 24 26 27 24 25 25 25 27 28 28 28 25 22 22 22 21 21 21 20 20 20 20 19 19 18 19 19 19 19 19 17 16 15 13 12 11 10 10 11 11
10 8 5 5 5 5 5 5 4 2 1 4 4 8 9 6 4 4 5 6 4 6 11 10 8 11 12 10 11 12 9 7 6 8 13 15 15 16 18 17 18 21 23 26 29 29 28 29 28 25 24 24 24 25 26 26 26 24 22 22 22 21 21 21 20 20 21 20 20 20 20 20 19 19 19 18 17 15 14 13 12 11 10 10 10 10
7 6 5 6 7 6 6 5 4 2 3 4 4 5 7 7 6 6 5 1 4 6 9 11 10 10 8 9 11 10 8 7 7 12 16 18 18 18 19 22 24 25 27 28 28 28 28 27 28 28 27 25 26 26 25 25 24 22 22 22 21 21 21 21 21 22 21 21 21 21 20 19 18 18 18 17 17 15 13 12 10 10 10 11 11 10
7 6 6 6 7 6 5 5 5 2 2 3 6 6 6 7 5 3 2 2 6 7 6 11 14 12 7 7 10 10 8 8 12 17 18 19 20 19 19 23 25 25 28 30 29 29 28 26 26 28 27 26 26 26 25 25 23 22 22 21 20 21 21 22 23 22 22 21 20 19 18 18 18 18 17 17 16 15 13 11 10 10 11 11 10 10
7 6 7 7 6 5 5 6 5 3 2 5 8 8 6 4 2 1 2 4 5 6 6 7 11 11 9 8 9 10 12 15 18 19 18 19 21 20 20 23 23 22 25 28 28 29 29 27 26 27 27 27 26 25 25 25 23 22 21 21 21 22 23 24 24 22 22 21 20 19 19 18 18 17 17 16 16 15 13 12 11 12 12 11 11 10
8 7 5 5 6 5 5 4 2 1 2 5 6 4 3 2 2 1 2 3 5 6 6 5 3 5 9 11 8 10 15 18 19 20 19 19 20 19 20 22 23 23 25 26 27 28 28 27 27 27 27 27 25 25 25 25 24 23 22 22 24 25 24 24 23 23 22 21 21 20 19 18 18 17 17 17 15 14 13 12 13 13 12 11 11 10
8 7 2 2 4 4 2 3 2 4 4 4 4 3 3 5 4 2 3 3 3 4 5 4 5 7 4 5 10 14 15 16 16 18 20 20 20 19 21 24 25 26 26 26 28 28 27 27 28 27 26 26 25 25 24 24 25 25 24 25 26 26 25 24 24 23 23 22 21 21 20 19 19 18 17 16 14 14 13 12 12 11 10 10 9 8
6 7 2 1 3 2 4 7 6 5 4 3 4 3 2 3 2 1 3 3 2 4 4 2 3 6 5 9 14 14 14 16 16 17 19 20 19 20 21 23 25 27 28 28 28 29 28 29 29 27 26 26 25 25 24 24 26 26 26 26 26 25 25 25 25 24 23 22 22 21 20 20 20 18 17 15 14 13 12 11 11 10 9 9 8 7
5 7 6 2 3 3 1 5 7 7 5 3 4 2 2 2 2 0 0 1 2 3 4 2 3 2 3 8 10 11 14 18 19 18 18 18 18 19 20 20 21 26 29 29 29 30 29 28 27 26 27 26 25 25 25 25 25 26 26 26 26 26 26 26 25 25 24 23 23 22 21 20 19 18 16 15 13 12 12 11 10 9 9 8 7 7
3 6 6 5 6 5 2 3 6 7 5 4 4 4 3 4 3 1 0 1 2 1 2 2 3 4 3 5 8 11 15 18 20 20 17 16 16 17 17 19 22 25 27 30 32 31 29 28 28 28 27 26 25 25 26 25 25 26 26 26 26 26 26 26 26 25 24 24 23 22 21 20 19 18 15 13 12 11 10 9 8 9 10 9 8 8
3 5 3 5 8 6 2 3 5 4 2 4 4 2 3 4 3 3 2 2 3 2 1 2 3 5 4 5 9 13 16 17 18 20 18 16 15 13 14 20 25 25 25 29 31 31 30 29 29 29 27 26 26 27 26 26 26 26 26 26 26 27 27 27 26 25 24 23 22 21 21 20 19 17 15 15 15 14 13 11 9 9 11 10 8 9
2 3 4 4 5 3 2 2 2 2 3 2 4 2 3 3 4 4 3 4 4 2 2 4 4 4 7 8 8 12 17 17 17 18 17 16 16 15 16 20 24 25 26 29 29 29 29 30 30 29 27 27 27 27 26 26 27 26 26 26 27 28 28 27 26 25 24 22 22 22 21 19 18 16 16 17 17 17 15 13 10 10 10 9 8 7
1 1 4 4 1 4 3 1 3 2 4 3 1 0 2 2 2 3 3 5 5 1 2 4 6 6 9 10 9 11 15 16 16 17 15 14 18 21 20 20 23 25 27 29 28 27 29 30 30 29 28 27 28 27 27 27 27 26 26 27 27 28 28 27 26 24 22 22 23 22 20 18 17 17 17 17 17 17 16 15 13 12 11 10 9 8
Wind_Direction
198 202 204 206 205 203 208 214 213 219 225 214 207 209 211 225 219 215 231 197 171 188 213 215 217 214 185 147 148 141 129 129 131 136 140 143 137 138 142 137 140 140 132 140 146 145 151 149 133 128 133 140 141 141 142 139 130 128 138 144 129 117 125 131 135 131 119 136 131 136 158 155 164 163 158 163 157 154 169 182 143 112 91 80 67 53
201 209 208 206 205 205 209 214 213 220 236 233 216 214 210 220 228 214 224 209 175 184 214 208 221 219 176 150 154 148 143 147 147 144 145 148 146 143 144 147 148 138 141 154 146 147 155 138 122 122 131 137 136 138 142 138 136 136 139 143 132 127 142 146 136 118 122 166 153 175 194 158 161 157 142 145 140 132 135 108 86 83 72 64 57 48
205 214 208 204 205 209 208 211 215 218 232 244 230 228 215 206 229 221 219 220 186 178 214 200 218 221 152 142 146 145 148 155 157 151 146 151 157 155 151 153 153 147 152 158 148 149 149 128 122 130 134 135 133 133 140 141 138 130 129 143 147 145 149 142 131 127 160 171 150 144 191 150 140 134 131 129 121 114 102 82 72 68 63 57 51 46
203 211 205 203 204 209 208 205 213 217 225 240 237 237 227 200 217 222 214 217 187 172 219 200 197 154 120 129 130 133 138 141 149 147 143 153 161 159 154 151 157 163 162 155 147 143 138 130 133 144 141 136 134 133 142 145 138 126 130 147 157 153 141 132 134 139 150 150 132 137 152 133 121 124 122 105 104 112 93 78 69 60 59 56 49 44
203 202 199 203 202 205 210 204 206 214 218 229 234 233 233 212 210 220 216 203 172 178 219 209 177 130 129 137 133 139 137 134 144 143 141 151 157 151 146 149 161 175 172 153 143 137 135 137 142 151 150 143 141 143 148 148 138 130 139 152 156 145 126 123 134 131 124 127 139 145 137 128 125 119 112 101 103 116 94 82 73 62 57 57 53 44
205 197 194 201 201 201 209 206 200 208 213 221 229 230 236 222 202 218 225 193 167 191 205 216 213 161 155 152 146 152 144 140 152 145 144 151 158 155 153 161 169 177 173 146 134 135 134 136 140 149 155 149 145 147 148 145 139 135 145 153 146 130 123 129 137 132 125 131 144 139 126 134 126 89 102 146 150 112 92 84 79 73 62 56 55 49
203 196 193 199 200 198 206 210 201 204 214 217 216 224 238 235 205 215 219 176 170 209 190 209 234 180 158 162 153 156 156 154 163 159 151 153 164 164 162 175 175 170 158 129 124 132 135 139 141 145 154 153 147 145 144 143 145 143 143 143 136 131 136 139 137 134 131 137 148 151 149 149 137 128 149 149 127 105 93 84 74 70 65 57 55 53
200 196 192 197 200 197 202 211 201 200 213 215 198 214 235 242 229 218 204 167 174 215 197 207 227 214 173 173 162 163 163 158 165 175 161 157 168 166 162 176 168 153 140 129 131 138 143 148 143 142 152 155 148 142 143 148 152 146 134 129 131 136 140 138 132 131 133 137 144 148 141 124 130 159 156 122 107 102 95 87 76 69 72 65 56 53
198 198 190 192 201 199 200 209 202 197 210 216 194 209 229 240 250 241 220 199 187 196 217 213 216 224 196 173 172 169 163 164 171 178 170 161 163 159 159 168 155 140 140 142 145 146 149 150 142 141 150 151 145 140 142 147 146 137 131 131 133 134 133 129 124 122 123 125 131 132 121 120 141 155 136 114 104 101 94 92 88 80 78 71 59 51
196 203 192 190 202 201 198 206 203 195 204 215 204 206 218 231 249 260 258 242 204 192 232 220 204 222 221 163 171 177 167 170 177 179 174 161 158 159 165 163 145 137 145 147 146 145 145 144 139 140 145 143 140 138 136 137 136 133 131 130 127 124 119 116 115 112 109 108 110 110 109 130 151 141 128 117 108 104 98 94 90 80 72 64 56 50
185 200 200 190 201 204 195 200 203 198 200 213 215 204 204 220 233 247 264 249 208 201 234 230 206 208 227 166 168 183 174 171 171 173 177 167 161 164 168 161 142 137 146 146 142 135 132 135 136 137 137 136 135 135 132 132 134 134 130 124 118 114 109 108 110 106 101 100 98 98 106 117 121 125 128 117 106 101 94 90 86 81 77 68 59 51
181 194 207 188 197 202 191 194 203 201 198 209 223 208 191 205 217 233 257 240 209 210 220 230 221 205 212 186 171 178 173 171 168 169 175 172 165 164 164 158 143 139 147 145 137 129 128 133 136 135 132 133 134 132 130 132 134 133 129 123 115 111 111 109 109 106 101 101 99 99 106 105 99 105 109 102 98 93 87 88 90 92 89 80 70 57
184 190 195 184 193 198 188 188 198 195 192 207 222 211 191 189 198 214 228 217 216 227 215 220 228 219 207 169 166 176 175 172 170 170 174 172 167 161 149 144 143 145 148 143 137 135 136 138 138 137 135 136 136 132 131 132 133 131 127 119 111 111 113 110 108 107 104 103 102 101 104 105 101 99 96 94 93 94 97 97 91 86 81 75 68 58
189 184 185 181 184 195 193 186 192 187 186 205 214 206 198 188 189 199 206 210 215 237 238 226 226 227 214 165 166 177 178 171 171 174 174 168 164 155 139 134 139 142 143 141 143 145 145 143 139 137 138 138 137 135 132 132 132 130 121 112 108 108 110 108 106 105 104 102 100 101 106 111 109 102 98 92 88 95 101 95 90 85 80 75 67 60
190 180 182 188 183 193 203 202 196 185 186 205 208 201 205 201 197 198 199 206 210 222 237 241 233 216 223 183 168 173 174 174 172 169 169 156 143 138 135 135 135 136 142 144 147 151 147 142 140 140 141 140 138 136 134 134 133 127 119 114 111 109 110 108 106 104 104 102 101 103 109 113 113 110 108 103 97 100 100 96 96 92 85 82 74 66
185 178 177 193 200 193 207 219 202 186 190 205 203 198 205 208 197 191 206 203 219 236 225 236 244 197 246 87 151 165 172 173 166 160 163 141 123 127 134 139 142 145 148 146 149 153 145 142 145 146 143 139 137 135 135 135 132 125 121 118 114 112 111 108 107 106 107 110 112 114 116 117 120 122 120 117 111 106 105 105 101 95 92 87 81 73
180 181 173 186 206 197 203 219 203 186 191 196 200 201 204 214 207 185 198 165 52 258 214 204 219 168 125 114 146 165 171 171 165 159 156 134 125 134 138 140 147 149 149 148 153 153 144 146 151 149 143 139 138 138 136 134 130 126 125 120 114 112 110 109 111 113 116 121 124 127 128 125 123 123 120 119 117 112 110 109 102 98 95 88 82 75
182 179 167 181 201 196 199 215 205 192 199 201 195 195 200 223 233 215 200 161 178 235 213 203 214 191 170 175 162 171 176 175 166 156 150 138 131 137 142 145 148 150 152 151 152 151 144 149 151 145 142 140 140 138 133 129 128 126 125 122 118 118 118 119 120 123 127 130 131 131 130 126 124 122 120 119 118 116 112 108 104 99 93 87 83 76
186 171 160 181 194 185 191 212 209 192 206 220 195 180 196 221 231 228 215 185 193 215 219 216 219 210 195 182 164 176 181 173 158 154 159 151 138 137 146 149 148 150 152 150 150 149 145 147 145 139 139 138 136 131 127 128 128 126 124 123 123 124 127 127 128 131 133 134 133 130 127 125 123 121 119 117 115 114 111 107 103 97 92 88 82 76
192 186 155 182 188 176 184 207 207 186 202 223 206 182 202 225 222 220 216 204 203 205 213 219 219 218 205 172 166 181 187 176 165 163 164 151 140 142 149 148 148 150 151 148 147 145 142 141 138 135 135 134 132 130 131 132 130 126 125 125 127 128 129 130 133 135 135 134 132 129 126 123 121 118 117 117 115 113 109 105 101 94 90 86 81 76
198 203 152 177 183 175 185 201 201 188 189 213 215 192 196 219 224 215 209 210 213 207 203 216 223 218 199 164 172 181 183 183 174 149 136 137 136 139 143 145 149 150 148 146 143 141 139 136 135 136 134 133 135 135 132 128 125 125 126 128 130 131 132 133 134 133 133 133 130 127 124 120 118 117 116 116 115 112 107 102 99 94 90 87 82 77
194 184 146 174 190 182 191 198 203 204 192 203 220 202 192 205 213 209 211 209 211 217 209 211 225 221 195 167 178 176 171 179 168 138 130 137 134 131 140 146 149 150 150 148 144 141 140 138 138 140 139 139 140 134 124 122 126 129 130 132 133 133 134 133 132 131 130 129 125 123 121 119 118 116 115 116 115 110 106 102 98 95 92 88 82 79
192 183 155 179 202 189 187 195 208 217 205 200 216 214 199 204 211 212 210 203 205 215 218 220 222 221 54 128 156 162 171 183 166 140 134 136 131 133 145 147 148 152 151 147 144 143 140 141 143 144 143 142 139 131 126 130 135 135 134 136 135 133 132 131 131 131 129 126 124 122 122 120 118 115 113 113 111 108 106 103 100 98 94 91 86 81
187 188 165 177 197 190 185 192 208 219 213 201 210 221 215 203 205 217 220 206 208 211 212 223 213 186 25 89 135 156 174 191 173 139 132 133 128 136 147 147 149 153 146 141 144 143 139 142 146 145 141 139 137 135 136 140 141 140 139 138 135 132 131 132 132 131 129 127 124 123 122 120 117 113 110 109 107 106 105 102 102 100 97 95 89 82
184 176 167 175 184 185 188 190 199 211 212 201 202 217 228 215 201 209 227 219 217 218 214 217 200 154 99 82 131 160 173 193 182 137 131 134 130 138 146 144 148 150 141 140 145 144 141 146 148 145 141 142 143 142 142 143 142 141 140 136 134 133 133 135 134 132 131 128 125 123 121 119 115 109 107 107 105 104 103 102 102 100 98 95 90 85
185 169 172 189 182 183 195 190 187 201 207 200 206 213 222 226 211 205 216 216 213 219 223 232 204 137 125 120 157 180 185 194 156 125 127 132 133 141 146 143 148 149 140 143 147 144 142 147 146 145 146 148 148 146 144 142 140 141 142 139 136 135 136 138 135 133 131 130 127 125 123 120 115 110 109 108 106 106 105 103 102 100 98 94 91 87
189 178 193 200 194 192 198 183 171 186 202 200 212 212 209 221 224 212 201 209 206 205 228 243 183 134 136 152 183 194 179 135 108 119 126 129 134 141 143 143 149 147 141 146 148 141 141 148 148 147 149 149 149 147 143 141 143 147 145 138 136 138 138 138 137 134 132 131 128 126 123 120 117 114 111 110 109 108 105 104 103 101 99 97 94 89
199 207 202 202 208 201 195 189 176 185 204 206 211 214 202 210 226 228 220 211 203 211 232 215 136 130 147 171 185 172 113 100 107 123 129 130 135 136 136 142 146 143 143 148 148 143 144 149 148 146 148 148 147 145 141 141 147 150 140 129 133 141 139 138 138 135 133 131 128 125 122 120 117 115 112 110 109 107 105 103 101 100 99 97 94 89
196 219 209 206 213 200 190 197 187 185 201 209 212 215 205 208 222 234 237 216 200 219 240 161 123 133 168 176 153 101 94 104 110 116 122 124 122 120 129 141 146 146 146 148 149 149 147 145 146 146 147 145 143 143 144 145 147 149 140 132 137 142 141 140 138 134 133 130 127 125 123 120 117 115 113 110 107 106 104 103 101 100 98 95 92 89
183 224 231 216 208 210 216 210 190 186 200 206 208 210 207 211 219 228 238 223 205 217 233 188 134 147 184 162 120 106 106 110 111 116 127 130 124 122 131 139 146 151 150 148 151 154 148 144 145 145 143 141 142 144 147 147 148 146 139 137 140 140 139 140 136 133 133 130 128 126 123 121 119 117 115 111 108 108 105 103 102 100 96 94 92 90
150 242 254 234 200 215 237 219 187 189 204 208 210 211 212 216 218 218 227 233 222 221 227 209 166 175 188 136 118 122 118 114 121 130 134 138 140 141 141 141 146 151 152 149 149 150 147 143 143 144 143 143 143 145 146 145 144 140 136 138 141 139 140 140 135 133 133 130 129 128 124 123 121 118 117 114 110 109 106 104 103 99 96 95 93 92
167 255 262 240 198 207 231 223 198 195 208 213 212 210 210 216 220 212 212 222 228 225 219 214 207 198 154 119 119 131 130 127 136 142 142 148 153 155 156 154 151 153 155 151 144 142 142 142 142 142 140 140 142 145 144 141 140 140 140 142 141 140 141 139 136 135 133 131 131 129 126 126 123 120 120 116 113 111 108 105 103 99 97 95 92 92
188 243 251 210 193 208 218 222 218 206 218 218 215 214 209 208 214 218 216 213 214 222 225 220 215 165 127 123 129 143 146 144 148 152 154 157 158 160 162 161 159 157 155 146 138 136 138 139 133 129 133 140 144 143 141 141 142 142 141 141 140 140 139 139 137 136 134 133 132 130 129 128 125 122 120 117 115 113 109 106 102 99 97 95 93 91
192 227 237 183 189 216 205 204 195 225 221 208 296 262 233 215 215 217 219 213 199 203 224 238 236 154 132 137 145 154 160 158 152 151 154 158 163 165 164 163 160 152 144 140 135 132 133 131 127 128 136 145 145 141 142 145 143 139 140 143 140 138 139 139 137 136 135 134 133 131 130 128 125 122 119 118 116 112 109 106 102 100 97 95 94 91
194 224 229 171 197 217 177 182 210 221 224 34 356 289 273 271 248 225 222 223 208 201 210 221 233 187 136 142 154 154 155 150 144 147 154 160 170 173 166 158 149 141 141 141 135 131 134 136 137 142 148 149 145 144 145 145 141 138 143 144 137 136 141 141 138 137 136 134 132 131 130 127 124 122 119 117 114 109 107 106 104 103 100 97 96 93
198 225 230 169 211 214 161 190 217 205 181 23 337 306 306 306 293 246 224 224 214 208 204 205 221 202 140 142 152 136 132 141 143 150 155 158 171 180 167 148 141 141 143 140 136 137 143 148 152 154 152 148 148 147 142 140 139 140 142 142 139 141 142 139 136 134 132 132 132 132 130 128 125 122 120 118 115 110 108 107 106 105 102 99 97 96
195 206 213 182 220 229 184 200 217 202 223 216 227 283 274 260 271 293 251 227 213 211 202 197 218 206 148 145 155 137 131 144 155 152 148 154 172 176 149 137 138 138 137 139 143 147 152 155 157 153 147 146 146 142 138 138 139 140 142 143 142 140 137 135 134 135 134 135 134 132 131 130 126 124 122 119 116 113 111 110 110 110 110 107 103 100
193 200 211 188 201 240 208 203 212 225 243 224 201 202 221 251 260 269 291 263 228 224 209 194 209 210 166 152 157 148 137 149 168 158 146 155 164 147 130 133 138 137 136 139 143 148 152 153 151 145 142 142 142 141 141 140 140 142 145 144 142 139 138 139 138 138 137 134 132 132 132 130 127 125 123 120 118 117 115 114 116 117 118 117 114 111
194 195 215 203 203 226 220 212 214 223 242 200 183 185 190 226 258 163 249 253 242 248 242 214 203 208 198 169 156 147 141 158 175 160 153 157 149 132 130 135 136 137 140 143 146 148 148 146 144 141 138 138 139 143 144 140 140 146 149 147 146 144 143 141 139 137 134 131 130 131 129 128 127 125 122 120 118 118 116 117 119 121 123 125 124 121
204 193 207 225 220 210 213 223 226 222 79 81 137 171 172 162 135 145 202 229 236 247 250 246 228 214 206 180 147 140 151 175 179 160 155 149 133 129 137 141 140 143 146 148 149 148 145 145 145 141 139 142 145 147 146 143 146 151 151 147 145 142 139 137 134 131 130 129 130 128 126 126 125 124 123 121 119 119 119 121 126 130 132 130 125 121
206 194 197 220 221 203 203 226 236 167 109 115 136 149 150 152 169 190 195 234 321 279 240 232 242 242 215 163 140 148 173 188 169 153 150 142 134 136 143 143 143 146 147 146 146 143 143 147 149 147 149 152 152 150 150 150 150 149 145 141 138 136 134 132 130 128 128 129 130 128 127 126 125 125 124 123 121 121 121 125 134 138 135 128 125 123
197 195 195 211 225 216 202 222 236 216 151 160 153 143 153 168 178 203 220 327 324 305 248 215 220 237 232 163 149 164 173 151 139 141 142 140 139 141 143 142 142 144 145 146 147 146 146 150 152 152 153 153 151 151 153 151 146 141 139 136 134 134 134 132 132 132 131 132 133 132 130 129 128 126 124 123 122 122 124 131 135 134 131 129 128 129
185 193 201 204 216 223 211 217 227 232 223 188 159 154 180 188 141 358 314 328 336 331 304 236 211 213 218 203 187 172 146 130 132 136 135 137 140 141 143 143 141 141 144 147 150 151 149 148 150 151 151 151 152 151 149 144 140 139 138 136 136 137 137 137 138 138 137 137 135 132 131 130 128 127 124 124 125 126 129 135 134 132 133 134 135 136
187 196 207 198 206 220 217 221 243 74 166 171 148 148 183 146 77 351 322 354 358 346 326 298 244 224 224 216 191 143 130 131 137 137 133 137 144 143 144 144 142 141 144 146 148 149 148 147 148 149 150 150 148 146 145 142 140 140 140 140 143 144 143 143 143 141 138 136 134 132 132 131 129 127 125 126 128 131 135 140 141 142 146 148 148 148
189 193 168 125 216 228 135 109 62 68 107 119 84 75 125 121 100 19 20 35 20 356 342 335 353 344 299 166 125 117 125 133 135 135 137 144 147 145 147 150 147 143 143 145 147 148 148 147 147 146 146 145 144 145 147 145 143 142 143 144 147 147 146 145 143 139 137 137 136 135 133 131 129 128 128 130 134 138 143 149 150 151 155 156 152 146
194 214 239 23 281 285 93 106 106 99 111 106 77 71 104 124 131 46 34 47 41 13 4 22 38 12 30 99 111 122 134 132 126 131 142 148 148 146 148 150 145 142 143 146 148 150 149 147 146 144 143 143 146 148 148 147 145 145 145 148 149 148 146 144 141 140 140 139 137 136 133 131 130 130 133 137 141 145 149 151 150 147 146 144 137 130
210 227 235 229 249 265 131 133 137 139 149 126 101 123 179 147 136 216 355 60 39 15 13 70 133 125 86 104 118 131 135 132 130 135 143 148 150 149 150 148 143 144 148 149 149 151 149 146 146 145 143 144 148 149 147 147 147 146 147 150 150 148 146 144 142 142 141 138 137 137 135 133 134 136 142 145 147 150 151 146 141 136 128 126 128 128
239 234 224 208 213 225 214 121 118 126 148 163 167 190 186 146 129 126 175 123 75 20 4 56 138 176 168 146 149 140 130 133 138 141 145 149 150 150 151 150 146 145 149 151 151 151 150 147 147 146 144 145 148 148 146 147 148 149 151 152 150 147 145 144 143 142 140 139 139 139 137 138 141 144 144 139 136 139 137 128 124 120 109 103 109 117
304 256 235 220 220 212 164 78 75 94 162 224 229 188 102 114 124 107 127 158 127 107 58 78 145 181 167 151 156 140 128 131 140 144 147 151 150 148 150 152 151 150 151 153 154 152 150 149 148 146 145 146 147 146 147 149 151 153 153 152 150 148 146 145 144 142 141 142 141 139 140 145 149 144 130 118 113 112 111 112 122 129 120 109 108 114
327 296 333 296 243 193 114 15 355 97 144 245 296 354 75 90 108 117 159 165 127 118 159 137 138 138 115 120 143 138 130 135 144 144 143 149 154 151 147 149 152 153 154 154 154 153 151 149 147 146 144 144 146 147 149 152 154 155 154 152 151 149 147 145 144 143 144 143 142 143 147 152 153 141 126 119 117 112 108 109 118 129 129 123 123 127
93 322 329 310 277 102 95 328 337 70 123 124 315 328 91 89 108 127 144 131 118 177 229 148 130 124 120 127 143 139 131 137 147 145 140 145 153 152 148 148 151 153 155 155 153 151 149 147 146 145 143 144 148 150 152 154 155 156 155 153 151 149 148 147 146 146 146 145 145 150 154 154 148 139 133 132 129 123 119 116 114 118 123 123 123 124
Height
723 729 729 725 724 722 720 716 715 714 709 708 709 713 716 715 710 702 696 687 688 709 714 710 712 713 720 727 726 727 729 733 740 744 749 752 755 758 760 763 766 769 772 774 778 782 782 784 785 786 786 787 789 789 790 792 795 797 800 801 804 806 808 809 812 816 818 819 820 821 822 823 824 825 825 826 826 827 831 831 827 826 826 826 826 825
721 727 723 717 717 716 716 714 713 714 710 705 705 708 709 711 705 694 691 686 685 704 711 707 710 709 715 725 724 725 731 734 737 741 748 751 754 757 758 761 761 762 766 768 771 776 780 783 785 786 787 788 789 790 790 791 793 796 798 800 803 805 806 808 811 815 818 820 821 822 823 824 826 827 827 829 830 830 831 830 827 826 826 826 826 826
724 722 716 711 711 711 712 711 713 715 712 708 704 705 705 704 702 694 687 681 682 700 709 706 710 709 712 723 724 725 730 733 733 736 742 748 752 756 757 759 760 760 762 763 765 771 777 781 784 786 787 789 790 790 791 792 793 795 796 798 801 803 805 808 812 814 815 818 820 822 823 825 826 827 828 829 829 829 831 830 827 826 826 826 826 826
724 717 709 707 707 709 710 710 713 714 712 711 706 705 701 695 701 700 688 680 680 695 704 702 710 719 722 726 728 727 729 732 733 735 739 744 749 752 754 756 760 762 761 760 761 766 774 780 784 786 788 789 790 790 792 793 794 795 796 797 799 802 806 809 813 815 816 817 819 821 823 824 825 826 828 827 827 829 831 830 828 827 826 826 826 826
714 707 702 703 705 707 710 709 710 714 714 711 704 703 698 691 694 695 686 681 684 695 699 699 717 734 734 736 738 731 730 734 734 736 741 745 748 752 754 756 759 762 763 760 760 764 770 777 782 786 788 789 790 792 793 793 794 795 796 797 799 802 806 808 811 815 818 818 819 820 822 823 824 825 825 826 829 831 832 830 829 828 827 827 827 827
704 698 696 701 702 703 707 706 706 711 715 712 703 696 692 687 688 689 683 684 701 712 702 701 727 740 732 735 741 735 734 739 736 736 742 745 748 752 755 757 759 762 764 762 761 764 769 775 781 785 788 789 790 792 793 793 794 794 796 798 800 803 805 807 808 812 816 818 820 822 823 824 825 826 826 829 832 833 832 830 829 829 828 828 828 828
695 691 692 698 699 701 705 704 701 704 713 714 700 690 688 685 685 687 685 693 715 719 701 700 721 736 737 736 736 735 736 739 739 738 739 743 748 750 753 757 759 762 765 766 765 766 770 774 780 784 787 789 790 792 793 793 794 795 797 799 800 802 804 805 806 810 814 817 821 823 825 827 827 828 831 833 833 832 831 831 830 829 829 830 830 830
686 688 691 694 696 700 704 704 696 696 709 708 692 689 692 689 686 683 685 697 707 706 701 699 707 729 746 740 731 732 736 738 741 740 738 741 746 750 753 755 757 761 764 767 768 768 771 774 779 783 786 788 790 791 792 793 794 795 798 798 799 800 801 803 806 809 813 816 819 823 825 827 828 831 834 833 832 831 831 831 830 830 831 831 831 831
681 685 689 691 695 697 698 697 689 691 703 698 686 690 692 689 687 679 682 692 693 704 717 706 701 723 737 731 728 732 737 741 740 739 738 739 744 750 754 755 758 763 764 764 767 767 770 774 778 783 786 788 790 791 792 792 794 795 796 797 798 800 801 803 805 808 812 815 818 820 821 825 830 832 833 832 831 831 831 831 831 831 832 832 832 831
678 679 679 686 693 692 691 688 684 689 697 690 684 688 688 688 688 685 691 690 689 712 726 706 699 719 725 722 729 734 737 741 737 734 735 737 743 749 752 754 758 763 764 764 766 767 770 774 778 783 786 788 790 791 792 793 793 794 795 796 797 799 800 802 805 808 811 814 817 818 820 824 830 831 831 831 831 831 831 832 832 832 832 832 832 832
672 673 672 678 685 683 683 684 682 686 690 686 684 686 690 692 691 694 694 687 699 723 721 699 692 709 723 721 721 723 724 726 729 732 733 733 740 747 751 754 757 761 763 764 767 768 772 775 780 784 786 787 789 790 792 793 794 795 796 796 797 798 800 802 806 809 811 814 816 818 821 825 828 829 830 830 831 831 831 831 832 832 832 832 833 833
670 677 674 672 676 675 679 684 682 682 683 686 688 688 699 705 702 707 703 697 718 729 712 695 687 699 722 722 710 708 709 711 719 726 729 729 733 741 749 753 755 759 761 763 767 770 773 777 781 784 786 787 789 790 792 793 794 796 797 797 796 798 800 803 806 808 811 814 816 819 822 825 828 829 830 830 830 831 831 832 832 832 832 832 833 834
673 677 673 671 671 669 678 688 687 684 685 690 692 694 709 722 723 729 725 716 723 720 700 691 692 698 707 707 704 703 703 705 710 715 720 724 728 734 745 750 753 758 761 763 768 772 775 778 781 783 785 787 789 791 792 794 795 796 798 798 797 798 801 803 805 808 811 814 817 820 823 825 828 829 829 830 830 831 832 832 832 832 833 833 834 835
682 676 670 674 675 670 676 687 693 692 690 694 695 697 710 724 737 745 736 728 728 717 697 686 693 700 696 693 696 696 695 697 701 707 711 716 724 732 741 749 752 756 760 763 768 772 775 777 780 782 785 787 789 791 793 794 796 797 798 799 798 800 802 803 806 808 811 814 817 821 823 825 827 828 829 830 830 831 832 832 833 833 834 835 835 836
691 688 678 679 682 677 676 680 684 686 689 691 686 690 704 711 727 739 733 732 734 721 704 693 695 701 697 690 686 685 687 690 695 702 705 711 723 732 740 748 753 757 759 762 765 769 772 775 780 782 785 787 789 791 793 794 796 796 798 799 799 801 803 804 806 809 812 815 818 821 823 826 827 828 829 830 831 832 832 833 834 835 836 836 837 837
687 694 681 679 680 678 682 676 669 679 693 689 678 688 703 697 703 719 720 720 725 723 713 703 697 693 689 683 676 679 685 685 691 700 703 714 727 735 742 747 752 756 758 761 763 766 771 775 779 781 784 787 789 791 793 793 795 796 797 799 800 802 803 805 807 810 813 816 819 822 825 827 828 829 830 831 832 833 833 835 835 836 837 837 837 837
686 691 677 680 682 676 681 675 666 677 691 688 686 692 692 682 686 707 717 712 720 731 719 702 700 697 694 692 682 682 688 688 693 701 706 718 729 735 741 746 751 754 757 760 762 765 770 774 777 781 784 787 789 791 792 794 795 797 798 800 801 803 805 807 810 812 815 818 821 824 826 828 829 829 830 831 832 834 835 836 836 837 837 838 838 838
679 687 675 679 686 676 672 673 667 668 676 685 692 689 683 683 683 694 714 722 730 737 719 701 705 706 709 713 697 688 694 694 694 700 708 718 729 736 741 744 750 753 756 760 762 765 769 773 777 781 784 787 789 791 793 794 797 798 800 801 803 805 807 810 813 815 818 820 823 825 827 828 829 830 831 831 833 834 835 836 837 837 838 838 839 839
667 685 683 676 681 677 670 676 677 669 668 676 680 678 687 703 704 698 709 725 734 739 726 709 705 700 702 709 703 696 698 696 697 702 707 715 727 737 741 743 749 752 755 759 762 766 769 773 777 781 784 787 789 791 793 795 798 800 802 804 806 808 810 812 815 817 819 821 823 825 827 828 829 830 831 832 833 835 836 837 837 838 838 838 839 839
663 682 692 679 673 677 676 680 687 682 675 674 674 677 685 696 701 698 700 709 721 734 732 721 713 701 690 691 697 698 695 694 698 702 705 712 723 733 738 743 748 751 755 759 762 766 769 774 778 781 785 787 789 792 793 796 798 800 803 806 808 811 812 814 816 818 820 822 823 825 826 828 829 830 831 833 834 835 836 837 837 838 838 838 839 840
664 677 692 685 672 680 685 681 682 683 682 683 682 683 688 689 689 692 695 694 703 721 728 728 724 703 679 678 687 690 689 691 694 701 708 714 721 730 736 742 747 750 755 759 762 766 770 774 778 782 785 787 790 792 794 796 799 801 804 807 809 812 814 816 817 819 820 822 823 825 826 827 829 830 832 833 835 836 836 837 837 838 839 839 840 840
669 674 689 694 684 686 688 676 673 675 676 682 682 678 686 692 691 702 708 693 688 703 713 721 726 703 674 671 679 681 685 687 689 701 712 715 722 731 737 742 746 750 755 759 762 767 770 774 779 782 785 788 790 792 794 798 801 803 806 808 811 813 814 816 818 819 820 822 823 825 826 827 829 830 832 834 835 836 836 837 837 838 839 840 841 841
664 672 687 697 688 682 681 674 673 672 669 675 679 674 679 685 687 702 712 698 690 696 697 704 718 705 678 670 675 679 683 684 686 698 710 716 723 731 738 742 746 750 753 757 762 767 770 775 779 782 785 788 790 792 795 799 802 805 807 809 811 813 814 816 818 819 821 822 824 826 827 829 830 831 833 834 836 836 836 837 838 839 840 841 842 842
664 673 687 696 686 675 675 674 673 671 670 677 680 674 674 677 678 686 691 689 695 700 699 708 721 711 687 674 675 679 682 683 686 696 708 717 725 732 737 742 746 749 752 756 762 767 771 775 779 782 785 787 790 793 796 799 802 804 807 808 810 813 815 817 818 820 821 823 825 827 828 830 831 832 834 835 836 836 837 838 838 840 841 842 843 842
671 677 687 700 701 693 691 690 685 679 675 678 680 676 673 670 673 681 680 683 697 699 697 710 722 713 693 681 679 682 685 685 688 697 707 716 726 734 738 742 747 749 752 756 762 766 771 775 778 781 785 787 790 793 796 798 801 803 806 808 810 813 815 818 819 821 822 824 825 827 829 830 832 833 834 835 836 837 838 839 839 841 842 843 843 843
671 677 683 696 706 708 706 700 692 685 677 676 679 678 675 670 672 680 685 695 706 702 696 702 709 706 696 689 690 689 687 689 692 700 709 715 726 734 737 743 748 749 753 757 761 765 771 775 777 781 785 788 791 793 795 798 800 803 806 808 811 813 815 818 820 821 823 824 825 827 829 830 832 833 835 836 837 838 839 840 840 842 843 843 844 844
669 676 678 683 688 692 691 682 676 679 682 684 684 678 676 676 672 676 689 700 702 703 703 696 696 704 704 699 698 693 693 700 705 708 713 719 728 735 739 744 748 750 754 758 760 765 770 774 777 780 784 787 790 792 794 797 800 803 805 807 811 813 815 817 819 821 823 824 825 827 829 831 832 834 835 836 837 838 839 840 841 842 843 844 844 845
676 682 677 675 675 672 671 669 669 677 683 685 684 678 676 678 677 681 691 691 689 702 710 695 693 709 710 700 699 698 703 714 717 716 719 724 731 737 741 746 749 753 755 758 762 766 770 774 776 779 783 786 789 792 795 798 801 803 805 807 811 814 816 817 819 821 823 824 825 827 829 831 833 834 836 837 838 839 840 841 842 843 844 845 845 845
679 686 676 672 672 665 663 666 667 674 679 679 680 679 678 681 683 686 687 681 683 700 706 696 700 712 706 698 703 708 712 718 722 724 727 730 735 739 743 748 752 755 758 760 764 766 769 774 776 779 783 785 789 793 795 798 802 804 806 808 812 815 816 817 819 820 822 824 826 828 829 832 833 835 837 838 839 840 841 842 843 844 845 846 846 846
676 686 678 672 673 669 666 664 663 669 676 676 678 678 679 682 683 683 683 679 682 692 692 692 704 708 698 697 708 714 715 718 723 728 731 734 739 742 746 750 753 756 759 761 765 767 769 773 777 780 783 785 789 793 796 799 802 804 806 809 813 815 816 818 819 821 823 825 827 829 830 832 834 835 837 839 840 841 842 843 844 845 846 846 847 847
680 689 680 672 677 679 671 664 664 671 676 678 678 677 678 681 682 682 683 682 684 688 686 690 703 703 692 695 708 714 714 718 725 730 732 736 740 744 748 752 754 758 759 760 765 769 770 773 777 781 783 786 789 793 797 799 802 804 807 810 813 815 816 818 820 821 823 825 827 829 831 833 834 836 838 839 841 842 843 844 845 846 847 847 848 849
688 695 683 675 685 688 676 671 671 671 675 681 681 680 681 684 684 683 684 684 686 690 691 696 702 699 691 696 709 713 713 720 727 729 733 736 738 742 747 751 754 758 760 761 764 769 772 774 778 782 785 788 792 795 798 799 801 804 806 809 812 813 816 818 820 822 824 826 828 830 832 834 835 837 839 840 841 843 844 845 846 847 848 849 849 850
691 696 685 680 693 694 681 677 676 679 689 692 683 677 678 681 684 684 682 682 683 687 695 699 697 691 690 698 709 713 714 719 724 727 730 734 736 740 743 747 752 755 759 763 766 770 773 776 779 783 788 791 794 797 799 800 801 803 806 809 811 813 816 818 820 823 825 826 829 830 832 834 836 838 839 841 842 843 844 846 847 848 849 850 851 851
688 692 685 682 696 698 685 680 686 699 709 700 682 672 672 676 680 684 683 681 680 683 689 690 685 684 692 700 705 710 712 714 718 723 726 730 735 739 740 744 750 755 759 763 766 770 774 777 781 785 788 792 794 795 797 799 800 803 806 809 811 813 816 818 820 823 825 827 829 831 833 835 836 838 840 841 843 844 845 846 848 849 850 851 852 852
688 690 685 684 694 695 687 691 710 719 710 693 682 676 674 676 677 678 680 677 677 681 684 686 686 686 692 699 702 706 710 712 716 720 724 728 732 735 739 744 749 755 761 763 765 770 774 777 782 785 787 791 792 793 796 798 799 803 807 809 811 814 816 818 820 823 825 828 830 831 833 835 837 839 840 842 843 844 846 847 849 850 851 852 853 854
689 690 686 686 692 693 695 707 719 715 698 690 689 683 679 683 682 683 687 680 674 678 682 686 687 686 690 697 700 704 710 713 716 719 722 727 730 732 737 743 748 753 758 762 765 769 773 777 780 783 786 789 791 792 794 797 800 805 808 810 812 814 816 818 821 823 825 828 830 832 834 835 837 839 840 842 843 844 847 848 850 851 852 853 854 855
683 687 688 692 695 695 701 708 707 704 701 698 696 689 684 685 684 687 695 687 673 673 678 682 684 685 690 696 697 701 709 714 719 721 721 725 729 731 736 742 747 751 756 761 765 767 772 776 779 782 785 787 790 792 793 796 801 806 809 811 813 815 817 819 822 824 826 828 830 832 834 835 837 839 840 842 843 845 847 849 851 852 853 854 856 857
678 683 686 694 698 695 700 707 707 713 713 701 691 685 681 681 677 679 693 693 678 671 674 678 682 684 688 694 696 699 708 718 724 725 723 725 728 732 737 743 747 751 756 761 765 769 773 776 779 782 785 787 790 792 793 796 800 805 810 811 813 815 818 820 822 824 826 828 830 832 834 836 837 839 840 842 843 845 847 849 852 853 854 855 857 858
678 681 682 691 698 697 701 709 710 713 708 692 683 681 679 681 676 680 699 702 683 673 674 674 677 681 684 689 693 697 710 723 726 723 721 724 729 734 740 744 748 753 757 760 764 769 773 776 780 783 785 788 791 793 795 797 801 805 809 810 812 816 817 820 822 824 826 828 830 832 834 836 837 839 840 842 843 846 847 849 852 854 855 856 858 858
684 685 689 697 700 697 701 706 703 702 699 687 681 680 679 678 680 696 718 710 683 675 676 673 675 678 678 684 691 698 709 717 717 715 716 722 729 736 740 744 749 754 758 761 765 768 772 776 780 783 786 789 792 794 797 799 802 806 808 809 812 815 817 820 822 824 826 829 830 833 835 836 838 839 841 842 844 846 848 850 853 854 856 857 858 859
692 690 694 700 700 696 702 706 700 698 695 686 681 680 677 681 693 710 718 702 683 680 678 674 677 678 676 682 691 696 701 702 702 705 711 719 729 736 740 744 749 753 758 763 767 770 774 778 780 783 787 789 791 795 798 800 803 805 807 809 812 815 817 820 822 824 827 829 831 834 836 837 839 840 842 843 845 846 849 851 853 855 856 857 858 859
697 696 697 700 700 696 698 702 702 699 692 683 681 681 680 692 708 709 699 689 684 682 677 675 678 677 676 682 688 690 693 695 697 703 711 719 728 735 740 745 750 755 759 764 767 771 774 778 781 783 786 789 793 796 798 800 803 805 808 810 813 815 817 820 822 825 828 830 833 835 836 838 840 841 843 844 845 847 850 852 854 855 856 857 858 859
693 699 700 697 696 696 698 702 706 705 693 680 682 687 688 696 703 697 688 686 684 681 678 677 675 675 677 681 682 685 690 695 700 707 715 722 728 734 741 745 749 754 759 763 767 770 773 777 780 784 787 791 794 796 798 800 803 805 808 811 813 816 818 821 824 826 828 831 833 835 837 839 840 842 843 845 847 849 851 853 855 856 857 858 858 859
688 694 698 693 689 695 701 702 700 697 686 678 683 691 691 690 691 689 688 688 685 683 681 678 675 675 676 677 679 685 692 698 703 709 717 725 730 735 741 745 748 754 758 762 766 770 773 777 780 784 788 791 793 795 798 800 802 805 809 811 814 817 819 821 824 827 829 831 833 835 837 839 841 842 844 846 848 850 852 854 855 856 857 857 858 858
685 683 689 691 686 686 693 696 691 687 683 681 684 688 687 687 687 687 688 689 688 686 684 682 682 680 676 676 681 689 696 701 705 711 718 726 731 736 741 746 749 753 757 762 766 770 773 777 780 783 787 789 792 796 798 800 802 805 808 811 814 817 819 821 824 826 829 831 833 835 837 839 841 843 845 847 849 851 853 854 854 855 856 857 857 858
679 676 682 689 687 684 686 689 687 687 688 686 686 687 688 688 687 686 688 689 689 687 686 688 689 685 681 683 687 692 698 704 710 716 722 727 733 738 743 747 750 753 757 762 766 770 773 776 779 783 786 789 793 795 798 801 803 805 808 812 814 817 819 821 824 826 829 831 833 835 837 839 841 844 846 848 850 851 853 854 854 855 856 856 857 857
679 678 681 688 692 693 694 690 685 687 689 688 690 691 689 688 688 687 688 689 688 688 688 689 689 688 687 690 692 695 699 705 713 721 727 730 735 740 744 747 751 754 757 761 765 769 772 775 779 782 784 788 792 795 798 801 803 806 809 812 814 817 819 821 824 826 828 830 833 835 838 840 842 844 847 849 850 851 853 853 854 855 855 856 857 857
685 683 683 688 691 692 691 686 685 689 689 686 689 691 688 688 689 688 687 688 688 689 688 688 689 689 689 691 694 697 702 707 714 721 728 733 738 741 744 747 750 754 758 761 764 768 771 774 778 780 783 787 791 794 797 801 804 807 810 812 814 817 819 821 824 826 828 831 833 836 838 840 842 844 847 848 849 851 852 852 853 854 854 855 856 857
691 687 686 686 686 686 689 688 690 698 699 692 688 687 687 689 690 689 689 689 689 690 690 689 690 690 690 691 693 696 705 712 715 720 727 733 738 742 744 746 750 755 759 761 764 767 770 773 776 779 783 787 790 794 797 801 804 807 810 812 814 816 818 821 823 826 828 831 833 836 838 840 842 844 846 847 848 850 851 852 853 854 855 856 857 857
696 695 693 691 689 694 701 700 695 699 704 701 695 692 690 690 690 690 691 690 690 692 691 691 691 691 692 694 695 698 706 714 717 722 727 732 738 743 745 747 751 755 759 762 765 768 770 773 776 779 782 786 790 794 797 801 804 807 810 812 814 815 818 820 823 826 829 831 833 836 838 840 842 844 846 848 849 850 852 853 854 855 856 857 858 858
701 703 703 700 698 700 703 701 697 698 700 701 698 695 692 691 691 691 691 691 693 693 691 691 693 695 696 699 699 701 707 713 716 721 727 733 739 743 746 749 752 755 758 761 764 767 770 773 776 779 782 786 790 794 797 801 804 807 809 811 813 815 817 820 822 825 828 830 833 835 837 839 841 843 846 848 850 851 853 854 856 857 857 858 859 859